This is the latest recevied weather packets stored in our database for station/object PD0HRY-12. If no packets are shown the sender has not sent any weather packets the latest 10 day(s).
| Time | Temp. | Humidity | Pressure | Rain* | Wind** | Luminosity | Snow |
|---|---|---|---|---|---|---|---|
| 1777879803 | 14.44° C | 92% | 1006 hPa | 70.87 mm | - | - | - |
| 1777878001 | 13.89° C | 92% | 1006 hPa | 70.87 mm | - | - | - |
| 1777876204 | 13.33° C | 93% | 1005 hPa | 70.87 mm | - | - | - |
| 1777874403 | 13.33° C | 94% | 1005 hPa | 70.87 mm | - | - | - |
| 1777872601 | 12.78° C | 95% | 1004 hPa | 70.87 mm | - | - | - |
| 1777870804 | 12.78° C | 95% | 1005 hPa | 70.87 mm | - | - | - |
| 1777869002 | 12.78° C | 95% | 1005 hPa | 70.87 mm | - | - | - |
| 1777867201 | 12.78° C | 95% | 1005 hPa | 70.87 mm | - | - | - |
| 1777865404 | 12.78° C | 96% | 1005 hPa | 70.87 mm | - | - | - |
| 1777863602 | 12.78° C | 96% | 1005 hPa | 70.87 mm | - | - | - |
| 1777861801 | 12.78° C | 96% | 1005 hPa | 70.87 mm | - | - | - |
| 1777860004 | 12.78° C | 96% | 1005 hPa | 70.87 mm | - | - | - |
| 1777858203 | 12.78° C | 96% | 1004 hPa | 70.87 mm | - | - | - |
| 1777856401 | 12.78° C | 96% | 1004 hPa | 70.87 mm | - | - | - |
| 1777854605 | 12.22° C | 96% | 1004 hPa | 76.71 mm | - | - | - |
| 1777852803 | 12.22° C | 95% | 1004 hPa | 71.37 mm | - | - | - |
| 1777851001 | 12.78° C | 95% | 1005 hPa | 80.52 mm | - | - | - |
| 1777849205 | 12.78° C | 94% | 1004 hPa | 80.52 mm | - | - | - |
| 1777847403 | 13.33° C | 94% | 1005 hPa | 104.9 mm | - | - | - |
| 1777845601 | 13.33° C | 94% | 1004 hPa | 104.9 mm | - | - | - |
| 1777843804 | 13.89° C | 94% | 1004 hPa | 104.9 mm | - | - | - |
| 1777842003 | 14.44° C | 94% | 1004 hPa | 104.9 mm | - | - | - |
| 1777840200 | 14.44° C | 94% | 1004 hPa | 106.17 mm | - | - | - |
| 1777838404 | 15° C | 93% | 1004 hPa | 104.9 mm | - | - | - |
| 1777836602 | 15° C | 92% | 1004 hPa | 104.9 mm | - | - | - |
* Rain latest 24 hours (hover to see other rain measurements)
** Current wind speed in m/s (hover to see current wind gust speed)